QPF
0.00 0.01 0.01 0.01 0.01 0.01 0.01 0.01 0.01 0.00 0.00 0.00 0.00 0.00 0.00 0.00 0.01 0.01 0.00 0.00 0.00 0.01 0.01 0.01 0.01 0.02 0.02 0.01 0.01 0.01 0.01 0.01 0.01 0.02 0.04 0.09 0.08 0.08 0.06 0.05 0.05 0.04 0.04 0.04
0.01 0.01 0.00 0.00 0.00 0.01 0.01 0.01 0.01 0.00 0.00 0.00 0.00 0.00 0.00 0.00 0.00 0.00 0.00 0.00 0.01 0.01 0.01 0.01 0.01 0.01 0.01 0.01 0.01 0.01 0.01 0.01 0.01 0.01 0.02 0.06 0.09 0.07 0.06 0.06 0.05 0.04 0.04 0.05
0.00 0.00 0.00 0.00 0.00 0.01 0.01 0.01 0.01 0.01 0.01 0.01 0.01 0.00 0.00 0.00 0.00 0.00 0.00 0.01 0.01 0.01 0.01 0.01 0.01 0.00 0.01 0.01 0.01 0.01 0.01 0.01 0.01 0.01 0.02 0.04 0.09 0.09 0.06 0.04 0.04 0.04 0.04 0.04
0.00 0.00 0.00 0.00 0.00 0.00 0.01 0.00 0.00 0.00 0.01 0.01 0.01 0.01 0.00 0.00 0.00 0.00 0.00 0.01 0.01 0.01 0.01 0.00 0.00 0.01 0.00 0.01 0.01 0.01 0.01 0.01 0.01 0.01 0.01 0.03 0.07 0.08 0.06 0.03 0.03 0.04 0.04 0.04
0.00 0.00 0.00 0.00 0.00 0.00 0.00 0.00 0.00 0.01 0.01 0.02 0.02 0.02 0.01 0.00 0.00 0.00 0.00 0.01 0.01 0.01 0.01 0.00 0.00 0.00 0.00 0.00 0.01 0.01 0.01 0.01 0.01 0.01 0.01 0.02 0.04 0.06 0.06 0.04 0.03 0.03 0.03 0.04
0.00 0.00 0.00 0.00 0.00 0.00 0.00 0.01 0.01 0.01 0.03 0.04 0.02 0.01 0.01 0.01 0.01 0.01 0.01 0.00 0.01 0.01 0.01 0.00 0.00 0.00 0.00 0.00 0.01 0.01 0.01 0.00 0.01 0.01 0.01 0.02 0.03 0.04 0.05 0.04 0.04 0.04 0.03 0.03
0.00 0.00 0.00 0.00 0.00 0.00 0.01 0.02 0.03 0.04 0.04 0.03 0.01 0.01 0.01 0.02 0.02 0.03 0.02 0.00 0.00 0.01 0.01 0.01 0.00 0.00 0.00 0.00 0.00 0.01 0.01 0.01 0.01 0.01 0.01 0.01 0.02 0.03 0.04 0.04 0.04 0.04 0.04 0.03
0.01 0.01 0.00 0.00 0.00 0.01 0.01 0.02 0.04 0.03 0.02 0.01 0.01 0.01 0.03 0.03 0.03 0.03 0.01 0.00 0.00 0.00 0.01 0.01 0.01 0.00 0.00 0.00 0.01 0.01 0.01 0.01 0.01 0.01 0.01 0.01 0.02 0.02 0.03 0.05 0.05 0.04 0.03 0.02
0.02 0.01 0.01 0.00 0.00 0.01 0.02 0.02 0.02 0.03 0.03 0.02 0.01 0.01 0.03 0.02 0.02 0.02 0.01 0.01 0.01 0.00 0.00 0.00 0.01 0.01 0.01 0.01 0.01 0.01 0.01 0.01 0.01 0.01 0.01 0.01 0.02 0.02 0.02 0.04 0.05 0.05 0.04 0.03
0.02 0.01 0.01 0.01 0.00 0.01 0.01 0.02 0.03 0.05 0.05 0.03 0.01 0.02 0.03 0.02 0.02 0.02 0.02 0.01 0.01 0.01 0.00 0.00 0.00 0.01 0.01 0.01 0.02 0.02 0.01 0.01 0.01 0.01 0.01 0.00 0.01 0.02 0.02 0.02 0.03 0.04 0.04 0.03
0.02 0.02 0.00 0.00 0.00 0.01 0.01 0.02 0.04 0.05 0.04 0.03 0.02 0.02 0.03 0.02 0.01 0.01 0.01 0.01 0.01 0.01 0.01 0.01 0.01 0.01 0.01 0.02 0.02 0.02 0.02 0.02 0.02 0.01 0.01 0.01 0.01 0.01 0.01 0.01 0.01 0.01 0.02 0.02
0.01 0.02 0.01 0.00 0.00 0.00 0.01 0.02 0.03 0.04 0.04 0.02 0.01 0.02 0.01 0.02 0.01 0.01 0.01 0.01 0.00 0.00 0.00 0.01 0.01 0.01 0.01 0.02 0.03 0.03 0.03 0.04 0.03 0.02 0.01 0.01 0.01 0.01 0.01 0.02 0.02 0.02 0.02 0.02
0.03 0.04 0.03 0.01 0.01 0.01 0.01 0.02 0.03 0.03 0.03 0.02 0.02 0.01 0.01 0.00 0.00 0.00 0.00 0.00 0.00 0.00 0.00 0.00 0.01 0.01 0.01 0.02 0.03 0.03 0.03 0.03 0.02 0.02 0.01 0.01 0.01 0.02 0.02 0.02 0.02 0.02 0.02 0.02
0.03 0.04 0.03 0.02 0.02 0.02 0.02 0.02 0.02 0.04 0.04 0.03 0.01 0.01 0.00 0.00 0.00 0.00 0.00 0.00 0.00 0.00 0.00 0.00 0.01 0.01 0.01 0.01 0.02 0.02 0.03 0.03 0.02 0.02 0.01 0.01 0.01 0.01 0.01 0.02 0.02 0.02 0.03 0.03
0.02 0.02 0.01 0.01 0.01 0.01 0.02 0.02 0.02 0.03 0.03 0.03 0.02 0.01 0.01 0.01 0.01 0.00 0.00 0.00 0.00 0.00 0.00 0.00 0.00 0.01 0.01 0.01 0.01 0.01 0.01 0.01 0.02 0.02 0.02 0.02 0.01 0.01 0.01 0.02 0.02 0.03 0.03 0.03
0.02 0.02 0.01 0.01 0.00 0.00 0.01 0.01 0.01 0.02 0.02 0.02 0.02 0.02 0.02 0.01 0.01 0.00 0.00 0.00 0.00 0.00 0.00 0.00 0.00 0.00 0.00 0.01 0.01 0.01 0.01 0.01 0.01 0.01 0.02 0.02 0.02 0.02 0.02 0.02 0.02 0.03 0.03 0.03
0.02 0.02 0.02 0.01 0.00 0.01 0.02 0.01 0.01 0.01 0.02 0.02 0.02 0.02 0.01 0.01 0.01 0.01 0.01 0.01 0.00 0.00 0.01 0.01 0.01 0.01 0.01 0.01 0.01 0.01 0.01 0.01 0.01 0.01 0.01 0.01 0.01 0.01 0.01 0.01 0.02 0.02 0.02 0.02
0.02 0.02 0.03 0.03 0.02 0.02 0.02 0.01 0.01 0.01 0.01 0.01 0.01 0.01 0.01 0.01 0.01 0.01 0.01 0.01 0.01 0.01 0.01 0.01 0.01 0.01 0.01 0.01 0.01 0.00 0.01 0.01 0.01 0.01 0.01 0.01 0.01 0.01 0.01 0.01 0.01 0.01 0.02 0.02
0.01 0.01 0.03 0.04 0.03 0.02 0.01 0.01 0.01 0.01 0.01 0.01 0.01 0.01 0.00 0.00 0.01 0.01 0.00 0.01 0.01 0.01 0.01 0.01 0.01 0.01 0.00 0.00 0.00 0.00 0.00 0.00 0.00 0.01 0.01 0.01 0.01 0.01 0.01 0.01 0.01 0.01 0.02 0.02
0.01 0.01 0.03 0.05 0.04 0.02 0.01 0.01 0.01 0.01 0.01 0.01 0.01 0.00 0.00 0.00 0.00 0.00 0.00 0.00 0.00 0.00 0.00 0.00 0.00 0.00 0.00 0.00 0.00 0.00 0.00 0.00 0.00 0.01 0.01 0.01 0.01 0.01 0.02 0.02 0.02 0.02 0.02 0.02
0.01 0.02 0.04 0.04 0.04 0.02 0.01 0.01 0.01 0.01 0.02 0.01 0.00 0.00 0.01 0.01 0.01 0.00 0.00 0.00 0.00 0.00 0.00 0.00 0.00 0.00 0.00 0.00 0.00 0.00 0.00 0.01 0.01 0.01 0.01 0.01 0.01 0.01 0.02 0.02 0.03 0.03 0.02 0.02
0.01 0.01 0.02 0.02 0.03 0.03 0.01 0.01 0.01 0.01 0.01 0.00 0.00 0.00 0.00 0.01 0.00 0.00 0.00 0.00 0.00 0.00 0.00 0.00 0.00 0.00 0.00 0.00 0.00 0.00 0.01 0.01 0.01 0.01 0.01 0.01 0.01 0.01 0.01 0.01 0.01 0.02 0.03 0.03
0.01 0.01 0.01 0.01 0.02 0.02 0.01 0.01 0.01 0.01 0.00 0.00 0.00 0.00 0.00 0.00 0.00 0.00 0.00 0.00 0.00 0.00 0.00 0.00 0.00 0.00 0.00 0.00 0.00 0.00 0.01 0.01 0.01 0.00 0.01 0.01 0.01 0.01 0.01 0.01 0.01 0.01 0.02 0.02
0.01 0.01 0.01 0.01 0.01 0.01 0.01 0.01 0.01 0.01 0.01 0.01 0.01 0.01 0.01 0.01 0.00 0.00 0.00 0.00 0.00 0.00 0.00 0.00 0.00 0.00 0.00 0.00 0.01 0.01 0.01 0.01 0.01 0.01 0.01 0.01 0.01 0.01 0.01 0.01 0.01 0.01 0.01 0.01
0.03 0.02 0.02 0.02 0.02 0.01 0.01 0.01 0.01 0.01 0.01 0.01 0.01 0.01 0.01 0.01 0.01 0.01 0.00 0.00 0.00 0.00 0.01 0.01 0.00 0.00 0.01 0.01 0.01 0.01 0.01 0.01 0.01 0.01 0.01 0.01 0.01 0.01 0.01 0.01 0.01 0.01 0.01 0.01
0.02 0.02 0.02 0.02 0.02 0.02 0.01 0.01 0.01 0.01 0.01 0.01 0.00 0.00 0.01 0.01 0.01 0.01 0.01 0.00 0.00 0.01 0.01 0.01 0.00 0.00 0.01 0.01 0.01 0.01 0.01 0.01 0.01 0.01 0.01 0.01 0.01 0.01 0.01 0.01 0.01 0.02 0.02 0.02
MSLP
1021.04 1021.78 1022.50 1023.14 1023.66 1024.03 1024.26 1024.38 1024.44 1024.46 1024.50 1024.55 1024.61 1024.66 1024.66 1024.58 1024.40 1024.14 1023.81 1023.48 1023.20 1023.02 1022.99 1023.10 1023.36 1023.70 1024.07 1024.40 1024.64 1024.76 1024.75 1024.62 1024.41 1024.17 1023.94 1023.72 1023.53 1023.35 1023.13 1022.85 1022.46 1021.95 1021.31 1020.55
1022.33 1023.01 1023.60 1024.07 1024.38 1024.54 1024.57 1024.54 1024.47 1024.42 1024.41 1024.44 1024.49 1024.53 1024.51 1024.41 1024.22 1023.93 1023.60 1023.28 1023.01 1022.86 1022.86 1023.02 1023.30 1023.67 1024.06 1024.41 1024.68 1024.83 1024.87 1024.81 1024.68 1024.52 1024.35 1024.19 1024.04 1023.86 1023.64 1023.33 1022.91 1022.37 1021.73 1020.98
1023.50 1024.15 1024.65 1024.98 1025.13 1025.12 1024.99 1024.81 1024.63 1024.48 1024.40 1024.38 1024.38 1024.37 1024.32 1024.19 1023.98 1023.70 1023.39 1023.09 1022.87 1022.77 1022.81 1022.99 1023.30 1023.67 1024.07 1024.43 1024.72 1024.91 1025.01 1025.02 1024.97 1024.89 1024.80 1024.69 1024.56 1024.39 1024.14 1023.80 1023.36 1022.80 1022.15 1021.43
1024.42 1025.06 1025.52 1025.77 1025.82 1025.70 1025.47 1025.19 1024.92 1024.69 1024.52 1024.42 1024.34 1024.27 1024.16 1023.99 1023.76 1023.49 1023.21 1022.96 1022.80 1022.75 1022.83 1023.05 1023.36 1023.73 1024.11 1024.47 1024.76 1024.98 1025.12 1025.20 1025.24 1025.24 1025.22 1025.16 1025.05 1024.87 1024.61 1024.24 1023.77 1023.20 1022.55 1021.85
1025.03 1025.67 1026.12 1026.34 1026.37 1026.22 1025.96 1025.64 1025.32 1025.03 1024.79 1024.60 1024.43 1024.27 1024.08 1023.86 1023.61 1023.34 1023.10 1022.91 1022.81 1022.82 1022.94 1023.17 1023.47 1023.82 1024.17 1024.50 1024.79 1025.02 1025.20 1025.35 1025.45 1025.53 1025.57 1025.55 1025.46 1025.28 1025.00 1024.60 1024.11 1023.53 1022.89 1022.21
1025.31 1025.96 1026.42 1026.67 1026.72 1026.61 1026.38 1026.09 1025.78 1025.47 1025.18 1024.91 1024.65 1024.39 1024.12 1023.83 1023.55 1023.28 1023.07 1022.93 1022.89 1022.94 1023.10 1023.33 1023.62 1023.93 1024.23 1024.52 1024.78 1025.02 1025.23 1025.42 1025.59 1025.73 1025.82 1025.85 1025.78 1025.60 1025.30 1024.89 1024.38 1023.79 1023.16 1022.51
1025.31 1025.96 1026.43 1026.72 1026.85 1026.83 1026.70 1026.49 1026.24 1025.96 1025.66 1025.33 1025.00 1024.64 1024.27 1023.91 1023.58 1023.30 1023.11 1023.00 1023.00 1023.10 1023.27 1023.50 1023.75 1024.01 1024.26 1024.50 1024.73 1024.95 1025.18 1025.41 1025.63 1025.83 1025.98 1026.05 1026.01 1025.84 1025.54 1025.11 1024.59 1024.01 1023.38 1022.75
1025.11 1025.72 1026.21 1026.55 1026.77 1026.87 1026.88 1026.80 1026.66 1026.44 1026.15 1025.80 1025.40 1024.96 1024.50 1024.06 1023.67 1023.36 1023.16 1023.08 1023.10 1023.21 1023.39 1023.60 1023.82 1024.04 1024.23 1024.42 1024.61 1024.82 1025.06 1025.32 1025.59 1025.84 1026.04 1026.15 1026.14 1025.99 1025.70 1025.28 1024.77 1024.19 1023.57 1022.95
1024.81 1025.36 1025.83 1026.22 1026.53 1026.77 1026.93 1027.00 1026.98 1026.85 1026.61 1026.26 1025.81 1025.29 1024.74 1024.21 1023.76 1023.41 1023.18 1023.09 1023.12 1023.23 1023.41 1023.60 1023.79 1023.96 1024.11 1024.26 1024.42 1024.61 1024.86 1025.14 1025.45 1025.75 1026.00 1026.16 1026.19 1026.08 1025.81 1025.42 1024.92 1024.35 1023.75 1023.15
1024.49 1024.97 1025.41 1025.82 1026.21 1026.57 1026.87 1027.09 1027.20 1027.17 1026.98 1026.63 1026.14 1025.56 1024.93 1024.32 1023.79 1023.37 1023.11 1022.99 1023.00 1023.11 1023.27 1023.45 1023.61 1023.75 1023.87 1024.00 1024.14 1024.33 1024.58 1024.89 1025.24 1025.58 1025.87 1026.08 1026.16 1026.09 1025.86 1025.50 1025.04 1024.50 1023.92 1023.34
1024.23 1024.62 1025.02 1025.44 1025.88 1026.32 1026.73 1027.07 1027.29 1027.34 1027.20 1026.87 1026.36 1025.72 1025.02 1024.32 1023.71 1023.23 1022.90 1022.74 1022.72 1022.81 1022.96 1023.12 1023.28 1023.41 1023.52 1023.64 1023.79 1023.98 1024.25 1024.58 1024.95 1025.33 1025.66 1025.91 1026.04 1026.01 1025.84 1025.53 1025.12 1024.62 1024.08 1023.52
1024.06 1024.38 1024.73 1025.13 1025.58 1026.06 1026.54 1026.96 1027.25 1027.36 1027.26 1026.93 1026.40 1025.72 1024.96 1024.19 1023.50 1022.95 1022.56 1022.35 1022.29 1022.36 1022.49 1022.65 1022.81 1022.95 1023.08 1023.21 1023.38 1023.59 1023.88 1024.23 1024.62 1025.02 1025.38 1025.66 1025.83 1025.86 1025.74 1025.50 1025.14 1024.71 1024.22 1023.70
1024.02 1024.26 1024.55 1024.91 1025.34 1025.82 1026.31 1026.75 1027.07 1027.20 1027.11 1026.79 1026.24 1025.53 1024.73 1023.91 1023.16 1022.55 1022.11 1021.85 1021.75 1021.79 1021.91 1022.08 1022.25 1022.42 1022.58 1022.75 1022.95 1023.19 1023.50 1023.86 1024.26 1024.67 1025.04 1025.35 1025.55 1025.62 1025.57 1025.39 1025.11 1024.75 1024.33 1023.86
1024.09 1024.27 1024.48 1024.77 1025.13 1025.56 1026.01 1026.42 1026.71 1026.83 1026.74 1026.41 1025.86 1025.14 1024.32 1023.48 1022.70 1022.05 1021.57 1021.27 1021.15 1021.16 1021.28 1021.45 1021.66 1021.86 1022.07 1022.29 1022.53 1022.81 1023.14 1023.52 1023.92 1024.32 1024.70 1025.01 1025.23 1025.34 1025.34 1025.24 1025.03 1024.75 1024.41 1024.02
1024.24 1024.35 1024.48 1024.67 1024.93 1025.25 1025.60 1025.92 1026.15 1026.22 1026.10 1025.77 1025.23 1024.53 1023.73 1022.91 1022.14 1021.49 1021.00 1020.68 1020.53 1020.54 1020.65 1020.85 1021.08 1021.33 1021.60 1021.87 1022.16 1022.48 1022.84 1023.22 1023.62 1024.01 1024.38 1024.68 1024.92 1025.06 1025.11 1025.06 1024.94 1024.74 1024.48 1024.17
1024.43 1024.46 1024.48 1024.54 1024.65 1024.82 1025.02 1025.21 1025.33 1025.33 1025.18 1024.85 1024.35 1023.70 1022.97 1022.21 1021.49 1020.88 1020.41 1020.10 1019.96 1019.97 1020.09 1020.30 1020.57 1020.86 1021.18 1021.51 1021.86 1022.22 1022.60 1023.00 1023.39 1023.77 1024.12 1024.42 1024.66 1024.82 1024.91 1024.92 1024.87 1024.75 1024.58 1024.35
1024.58 1024.52 1024.41 1024.31 1024.24 1024.22 1024.23 1024.25 1024.24 1024.16 1023.97 1023.65 1023.21 1022.65 1022.03 1021.38 1020.77 1020.25 1019.84 1019.58 1019.46 1019.47 1019.61 1019.84 1020.14 1020.48 1020.85 1021.23 1021.63 1022.04 1022.45 1022.85 1023.25 1023.62 1023.95 1024.24 1024.48 1024.66 1024.78 1024.85 1024.86 1024.82 1024.72 1024.56
1024.60 1024.43 1024.19 1023.92 1023.65 1023.42 1023.22 1023.05 1022.90 1022.72 1022.50 1022.22 1021.86 1021.43 1020.95 1020.47 1020.01 1019.61 1019.30 1019.11 1019.04 1019.08 1019.24 1019.49 1019.81 1020.18 1020.59 1021.02 1021.46 1021.91 1022.35 1022.78 1023.18 1023.55 1023.88 1024.17 1024.41 1024.61 1024.76 1024.87 1024.94 1024.95 1024.92 1024.82
1024.40 1024.13 1023.76 1023.32 1022.85 1022.41 1022.01 1021.66 1021.37 1021.11 1020.87 1020.63 1020.37 1020.09 1019.80 1019.50 1019.22 1018.98 1018.81 1018.71 1018.71 1018.79 1018.97 1019.23 1019.57 1019.96 1020.39 1020.85 1021.33 1021.81 1022.28 1022.73 1023.15 1023.53 1023.87 1024.17 1024.43 1024.64 1024.82 1024.97 1025.07 1025.14 1025.15 1025.10
1023.91 1023.57 1023.08 1022.50 1021.87 1021.24 1020.66 1020.16 1019.75 1019.43 1019.18 1019.00 1018.86 1018.74 1018.64 1018.55 1018.46 1018.40 1018.37 1018.39 1018.46 1018.59 1018.79 1019.07 1019.41 1019.80 1020.25 1020.72 1021.22 1021.73 1022.22 1022.69 1023.13 1023.54 1023.89 1024.21 1024.49 1024.73 1024.93 1025.11 1025.24 1025.33 1025.37 1025.35
1023.10 1022.71 1022.15 1021.47 1020.72 1019.97 1019.27 1018.65 1018.17 1017.81 1017.58 1017.47 1017.45 1017.49 1017.57 1017.67 1017.78 1017.89 1018.01 1018.14 1018.29 1018.47 1018.70 1018.98 1019.32 1019.70 1020.14 1020.62 1021.12 1021.63 1022.14 1022.63 1023.09 1023.51 1023.90 1024.24 1024.54 1024.81 1025.04 1025.24 1025.40 1025.50 1025.56 1025.54
1021.95 1021.55 1020.97 1020.26 1019.47 1018.66 1017.90 1017.24 1016.73 1016.37 1016.18 1016.15 1016.23 1016.41 1016.65 1016.93 1017.21 1017.47 1017.73 1017.96 1018.19 1018.42 1018.68 1018.96 1019.29 1019.66 1020.08 1020.53 1021.02 1021.52 1022.03 1022.52 1022.99 1023.44 1023.85 1024.22 1024.55 1024.85 1025.11 1025.33 1025.50 1025.61 1025.66 1025.64
1020.50 1020.13 1019.58 1018.89 1018.13 1017.35 1016.62 1015.99 1015.51 1015.20 1015.06 1015.10 1015.28 1015.57 1015.94 1016.34 1016.75 1017.15 1017.51 1017.84 1018.14 1018.42 1018.70 1018.99 1019.31 1019.66 1020.05 1020.47 1020.93 1021.41 1021.89 1022.38 1022.85 1023.30 1023.73 1024.13 1024.50 1024.83 1025.11 1025.35 1025.53 1025.64 1025.69 1025.66
1018.81 1018.47 1018.00 1017.40 1016.74 1016.07 1015.44 1014.90 1014.51 1014.28 1014.22 1014.34 1014.59 1014.96 1015.41 1015.90 1016.40 1016.87 1017.32 1017.72 1018.08 1018.41 1018.72 1019.03 1019.35 1019.69 1020.05 1020.44 1020.85 1021.29 1021.75 1022.21 1022.67 1023.13 1023.57 1023.99 1024.38 1024.74 1025.05 1025.31 1025.50 1025.61 1025.65 1025.61
1016.92 1016.64 1016.26 1015.79 1015.29 1014.79 1014.32 1013.95 1013.69 1013.57 1013.61 1013.79 1014.10 1014.51 1015.00 1015.53 1016.07 1016.60 1017.10 1017.56 1017.97 1018.35 1018.71 1019.05 1019.38 1019.71 1020.06 1020.42 1020.80 1021.19 1021.61 1022.04 1022.48 1022.93 1023.37 1023.81 1024.23 1024.62 1024.96 1025.24 1025.44 1025.56 1025.60 1025.55
1014.93 1014.68 1014.40 1014.09 1013.78 1013.48 1013.22 1013.04 1012.95 1012.97 1013.10 1013.35 1013.69 1014.12 1014.62 1015.15 1015.70 1016.24 1016.77 1017.27 1017.75 1018.19 1018.60 1018.98 1019.35 1019.70 1020.05 1020.39 1020.74 1021.10 1021.48 1021.87 1022.29 1022.72 1023.17 1023.63 1024.07 1024.48 1024.86 1025.16 1025.39 1025.52 1025.56 1025.52
Thickness
5558 5551 5550 5554 5556 5559 5556 5553 5552 5557 5561 5556 5555 5561 5571 5573 5570 5571 5571 5572 5574 5578 5580 5579 5578 5577 5576 5575 5575 5575 5576 5575 5574 5573 5573 5572 5571 5572 5571 5571 5570 5570 5569 5568
5545 5546 5554 5553 5552 5551 5549 5546 5547 5551 5553 5551 5550 5556 5566 5569 5569 5570 5570 5570 5571 5572 5571 5572 5571 5570 5570 5569 5569 5569 5570 5569 5569 5569 5568 5566 5565 5564 5564 5564 5564 5563 5562 5561
5544 5550 5550 5547 5544 5544 5543 5542 5543 5542 5542 5544 5542 5550 5561 5568 5568 5569 5570 5570 5569 5569 5567 5566 5565 5563 5562 5562 5563 5565 5564 5564 5563 5562 5560 5559 5557 5556 5556 5556 5556 5556 5555 5554
5536 5542 5541 5539 5539 5539 5537 5541 5539 5536 5530 5527 5532 5532 5556 5560 5562 5565 5565 5564 5565 5565 5564 5562 5560 5558 5558 5558 5558 5558 5558 5557 5556 5555 5554 5553 5552 5552 5552 5551 5550 5549 5548 5547
5529 5531 5532 5533 5535 5534 5532 5534 5531 5530 5524 5520 5524 5520 5545 5552 5557 5562 5563 5561 5561 5561 5560 5558 5557 5555 5553 5551 5551 5551 5551 5551 5550 5549 5549 5547 5546 5546 5544 5543 5542 5541 5540 5540
5522 5525 5524 5526 5528 5528 5526 5524 5521 5514 5510 5513 5526 5517 5534 5546 5556 5560 5560 5557 5555 5554 5553 5552 5550 5548 5546 5544 5543 5543 5543 5543 5543 5543 5542 5541 5540 5539 5537 5536 5536 5535 5533 5533
5512 5515 5516 5517 5518 5519 5517 5512 5500 5498 5492 5505 5519 5518 5532 5551 5554 5555 5554 5553 5550 5548 5545 5543 5541 5539 5537 5536 5535 5535 5535 5535 5536 5535 5535 5534 5534 5533 5532 5531 5530 5529 5527 5526
5500 5504 5507 5506 5509 5508 5509 5510 5501 5497 5498 5504 5509 5514 5536 5546 5547 5548 5547 5545 5543 5540 5538 5536 5534 5533 5531 5530 5528 5528 5528 5528 5528 5528 5528 5527 5527 5526 5526 5525 5524 5523 5522 5521
5488 5495 5499 5499 5502 5502 5502 5498 5503 5493 5484 5487 5502 5510 5527 5540 5539 5539 5537 5536 5533 5531 5529 5527 5526 5524 5524 5523 5522 5521 5520 5520 5520 5520 5520 5520 5520 5520 5519 5518 5517 5516 5515 5514
5481 5480 5487 5488 5492 5493 5493 5492 5485 5483 5484 5489 5500 5505 5519 5531 5530 5529 5527 5526 5524 5522 5520 5518 5516 5515 5514 5513 5513 5513 5512 5512 5512 5512 5512 5512 5511 5512 5512 5511 5510 5509 5508 5507
5471 5471 5476 5477 5478 5484 5482 5482 5481 5478 5478 5486 5489 5507 5521 5522 5521 5519 5518 5516 5513 5512 5510 5508 5506 5505 5505 5504 5504 5503 5503 5503 5503 5503 5504 5503 5502 5502 5502 5502 5502 5501 5500 5499
5459 5459 5461 5467 5471 5474 5475 5479 5476 5475 5470 5475 5484 5499 5512 5508 5506 5506 5505 5505 5504 5502 5499 5496 5495 5494 5494 5494 5494 5493 5493 5493 5494 5494 5494 5494 5493 5493 5493 5493 5493 5492 5492 5491
5450 5448 5452 5462 5462 5459 5461 5464 5463 5460 5462 5462 5470 5492 5498 5493 5493 5493 5493 5492 5492 5491 5488 5486 5484 5483 5483 5484 5484 5484 5483 5483 5484 5484 5484 5484 5484 5484 5484 5484 5483 5483 5483 5482
5445 5437 5446 5458 5463 5453 5451 5452 5452 5452 5453 5457 5469 5481 5483 5480 5479 5478 5478 5479 5479 5478 5476 5474 5473 5472 5472 5473 5473 5473 5473 5473 5473 5474 5474 5474 5474 5474 5474 5474 5474 5474 5473 5473
5430 5425 5426 5436 5441 5441 5443 5443 5440 5443 5452 5456 5467 5460 5470 5468 5466 5465 5466 5467 5467 5466 5465 5464 5463 5462 5462 5462 5462 5462 5462 5462 5462 5462 5463 5463 5463 5463 5463 5463 5463 5463 5463 5463
5415 5413 5414 5419 5428 5429 5432 5434 5433 5433 5435 5438 5444 5450 5457 5453 5453 5452 5453 5455 5456 5455 5454 5453 5453 5452 5452 5452 5451 5451 5451 5451 5451 5451 5451 5451 5451 5451 5452 5452 5452 5452 5452 5452
5401 5399 5402 5408 5412 5418 5420 5431 5428 5425 5425 5428 5434 5445 5445 5443 5442 5441 5442 5443 5443 5442 5442 5441 5440 5440 5440 5439 5440 5439 5439 5439 5439 5440 5440 5439 5438 5439 5440 5440 5440 5440 5441 5440
5393 5391 5387 5387 5395 5412 5437 5435 5429 5423 5419 5418 5424 5430 5431 5432 5430 5428 5427 5428 5429 5430 5429 5428 5427 5427 5427 5426 5427 5427 5427 5427 5427 5427 5427 5427 5426 5426 5427 5428 5428 5428 5428 5427
5392 5389 5379 5377 5382 5398 5422 5423 5417 5417 5420 5417 5415 5418 5419 5420 5422 5419 5416 5414 5414 5415 5414 5414 5414 5414 5414 5413 5413 5414 5414 5414 5414 5414 5414 5413 5413 5414 5414 5415 5416 5415 5415 5415
5379 5379 5373 5367 5377 5387 5422 5417 5412 5413 5415 5414 5410 5408 5406 5408 5410 5412 5406 5403 5402 5402 5400 5400 5399 5400 5400 5400 5400 5400 5401 5401 5402 5402 5402 5401 5401 5402 5402 5403 5403 5403 5403 5403
5360 5359 5360 5359 5365 5382 5400 5399 5404 5403 5412 5403 5397 5395 5392 5393 5395 5393 5390 5389 5388 5388 5386 5385 5385 5385 5385 5386 5386 5386 5387 5388 5388 5389 5389 5389 5390 5390 5390 5390 5391 5391 5391 5390
5359 5352 5348 5349 5358 5380 5387 5384 5387 5391 5387 5383 5381 5379 5378 5377 5376 5375 5374 5373 5373 5372 5372 5371 5370 5370 5371 5371 5372 5373 5373 5374 5374 5375 5376 5376 5377 5377 5377 5377 5378 5378 5378 5378
5359 5363 5361 5365 5374 5371 5365 5366 5365 5364 5366 5365 5363 5362 5362 5361 5360 5360 5358 5358 5358 5357 5356 5357 5356 5357 5357 5357 5357 5358 5360 5360 5361 5362 5363 5363 5364 5364 5364 5365 5365 5365 5365 5365
5346 5346 5352 5351 5355 5351 5346 5344 5343 5342 5343 5343 5344 5345 5346 5345 5345 5343 5344 5343 5342 5341 5341 5341 5341 5342 5343 5343 5343 5343 5345 5346 5347 5349 5350 5351 5351 5351 5351 5352 5353 5353 5353 5352
5332 5328 5334 5338 5336 5332 5333 5328 5328 5326 5325 5325 5326 5327 5328 5329 5328 5328 5328 5327 5327 5327 5325 5325 5326 5328 5329 5329 5329 5330 5331 5332 5334 5336 5337 5337 5338 5338 5339 5339 5339 5340 5341 5341
5312 5312 5319 5331 5322 5319 5321 5316 5314 5311 5311 5310 5310 5310 5310 5311 5311 5311 5311 5311 5310 5310 5310 5310 5311 5313 5314 5315 5317 5317 5317 5318 5320 5323 5325 5325 5325 5325 5325 5325 5325 5327 5328 5329